SCP
0 0 0 0 0 0 0 0 0 0 0 0 0 0 0 0 0 0 0 0 0 0
0 0 0 0 0 0 0 0 0 0 0 0 0 0 0 0 0 0 0 0 0 0
0 0 0 0 0 0 0 0 0 0 0 0 0 0 0 0 0 0 0 0 0 0
0 0 0 0 0 0 0 0 0 0 0 0 0 0 0 0 0 0 0 0 0 0
0 0 0 0 0 0 0 0 0 0 0 0 0 0 0 0 0 0 0 0 0 0
0 0 0 0 0 0 0 0 0 0 0 0 0 0 0 0 0 0 0 0 0 0
0 0 0 0 0 0 0 0 0 0 0 0 0 0 0 0 0 0 0 0 0 0
0 0 0 0 0 0 0 0 0 0 0 0 0 0 0 0 0 0 0 0 0 0
0 0 0 0 0 0 0 0 0 0 0 0 0 0 0 0 0 0 0 0 0 0
0 0 0 0 0 0 0 0 0 0 0 0 0 0 0 0 0 0 0 0 0 0
0 0 0 0 0 0 0 0 0 0 0 0 0 0 0 0 0 0 0 0 0 0
0 0 0 0 0 0 0 0 0 0 0 0 0 0 0 0 0 0 0 0 0 0
0 0 0 0 0 0 0 0 0 0 0 0 0 0 0 0 0 0 0 0 0 0
0 0 0 0 0 0 0 0 0 0 0 0 0 0 0 0 0 0 0 0 0 0
Wind_Speed_500mb
44 38 40 34 28 22 12 0 7 14 21 27 32 37 43 48 49 48 48 54 43 34
45 50 45 42 43 34 18 10 7 13 20 27 34 38 43 43 45 49 53 44 39 50
52 44 46 42 35 25 17 9 10 17 24 29 32 37 43 45 50 53 52 53 58 55
43 41 40 33 25 19 11 12 16 22 28 32 36 43 50 52 54 57 55 50 50 52
37 32 30 22 15 10 14 19 24 30 35 39 46 50 52 52 48 48 48 50 49 40
30 22 16 12 9 13 18 24 31 38 44 49 49 47 43 42 42 44 48 42 38 33
20 13 11 10 13 20 27 33 38 44 47 41 42 39 39 39 43 42 41 34 31 28
14 7 9 15 21 27 34 38 43 40 36 34 37 41 42 34 43 41 32 31 31 33
16 11 16 23 28 32 37 37 35 33 33 32 37 33 35 42 45 35 32 33 34 39
17 18 21 25 30 33 36 34 30 29 26 27 32 35 38 44 39 36 29 32 36 38
13 18 21 27 30 31 33 30 21 18 20 24 29 34 37 42 42 33 28 31 32 24
13 15 20 24 28 28 24 21 23 22 21 24 26 32 39 47 45 34 30 32 32 18
10 13 17 24 26 27 21 24 24 27 28 20 24 32 39 40 45 45 37 40 29 12
11 14 20 24 29 24 24 24 27 25 21 18 20 29 35 43 49 46 43 42 33 22
Wind_Direction_500mb
170 164 147 145 142 144 137 46 342 345 343 341 340 338 335 332 331 327 322 321 321 316
151 149 145 151 152 157 174 223 332 321 322 327 328 329 327 323 318 316 318 317 311 307
153 157 163 165 163 171 189 223 270 297 312 317 321 318 316 311 311 312 311 307 310 313
161 170 174 172 169 186 222 270 292 305 309 312 313 314 313 310 309 311 315 318 315 310
161 165 169 174 187 219 264 292 305 306 308 313 316 317 312 314 319 319 317 316 315 317
158 166 178 196 228 270 288 298 303 310 315 318 316 319 319 319 318 317 319 324 325 329
157 176 206 242 278 294 298 303 311 314 317 321 321 323 321 316 319 326 328 328 328 340
170 189 252 273 282 292 302 309 315 321 323 326 323 318 315 327 331 336 335 335 336 337
167 219 261 277 289 300 305 311 322 322 322 323 324 333 335 334 331 338 336 330 339 333
194 235 264 284 300 304 310 317 317 318 321 331 336 335 337 335 336 339 330 331 324 323
246 274 293 299 305 309 313 321 326 330 333 335 335 331 336 337 330 334 328 331 333 326
283 299 301 313 323 327 336 346 355 359 345 349 336 339 336 330 329 334 329 338 331 325
314 314 330 342 346 356 7 16 2 1 2 17 351 332 322 324 330 329 331 338 337 309
352 348 360 10 7 25 13 360 357 19 13 351 327 315 316 320 321 320 327 335 331 333
Wind_Speed_850mb
44 38 40 34 28 22 12 0 7 14 21 27 32 37 43 48 49 48 48 54 43 34
45 50 45 42 43 34 18 10 7 13 20 27 34 38 43 43 45 49 53 44 39 50
52 44 46 42 35 25 17 9 10 17 24 29 32 37 43 45 50 53 52 53 58 55
43 41 40 33 25 19 11 12 16 22 28 32 36 43 50 52 54 57 55 50 50 52
37 32 30 22 15 10 14 19 24 30 35 39 46 50 52 52 48 48 48 50 49 40
30 22 16 12 9 13 18 24 31 38 44 49 49 47 43 42 42 44 48 42 38 33
20 13 11 10 13 20 27 33 38 44 47 41 42 39 39 39 43 42 41 34 31 28
14 7 9 15 21 27 34 38 43 40 36 34 37 41 42 34 43 41 32 31 31 33
16 11 16 23 28 32 37 37 35 33 33 32 37 33 35 42 45 35 32 33 34 39
17 18 21 25 30 33 36 34 30 29 26 27 32 35 38 44 39 36 29 32 36 38
13 18 21 27 30 31 33 30 21 18 20 24 29 34 37 42 42 33 28 31 32 24
13 15 20 24 28 28 24 21 23 22 21 24 26 32 39 47 45 34 30 32 32 18
10 13 17 24 26 27 21 24 24 27 28 20 24 32 39 40 45 45 37 40 29 12
11 14 20 24 29 24 24 24 27 25 21 18 20 29 35 43 49 46 43 42 33 22
Wind_Direction_850mb
170 164 147 145 142 144 137 46 342 345 343 341 340 338 335 332 331 327 322 321 321 316
151 149 145 151 152 157 174 223 332 321 322 327 328 329 327 323 318 316 318 317 311 307
153 157 163 165 163 171 189 223 270 297 312 317 321 318 316 311 311 312 311 307 310 313
161 170 174 172 169 186 222 270 292 305 309 312 313 314 313 310 309 311 315 318 315 310
161 165 169 174 187 219 264 292 305 306 308 313 316 317 312 314 319 319 317 316 315 317
158 166 178 196 228 270 288 298 303 310 315 318 316 319 319 319 318 317 319 324 325 329
157 176 206 242 278 294 298 303 311 314 317 321 321 323 321 316 319 326 328 328 328 340
170 189 252 273 282 292 302 309 315 321 323 326 323 318 315 327 331 336 335 335 336 337
167 219 261 277 289 300 305 311 322 322 322 323 324 333 335 334 331 338 336 330 339 333
194 235 264 284 300 304 310 317 317 318 321 331 336 335 337 335 336 339 330 331 324 323
246 274 293 299 305 309 313 321 326 330 333 335 335 331 336 337 330 334 328 331 333 326
283 299 301 313 323 327 336 346 355 359 345 349 336 339 336 330 329 334 329 338 331 325
314 314 330 342 346 356 7 16 2 1 2 17 351 332 322 324 330 329 331 338 337 309
352 348 360 10 7 25 13 360 357 19 13 351 327 315 316 320 321 320 327 335 331 333